GW0502 Weather Reports


time (UTC)temp
C
wind
direction
speed
KPH
gust
KPH
rain 1hr
cm
rain 24hr
cm
rain mn
cm
humidity
%
barometer
mb
20260504231636 16 330 3.2 3.2 0.00 0.05 0.05 59 1006.5
20260504231133 15 335 8.0 9.7 0.00 0.05 0.05 58 1006.7
20260504230629 16 342 1.6 1.6 0.00 0.05 0.05 59 1006.7
20260504230128 16 343 1.6 1.6 0.00 0.05 0.05 58 1006.5
20260504225626 16 325 1.6 3.2 0.00 0.05 0.05 56 1006.6
20260504225121 16 277 3.2 3.2 0.00 0.05 0.05 56 1006.5
20260504224618 16 352 1.6 1.6 0.00 0.05 0.05 57 1006.5
20260504224115 16 279 8.0 9.7 0.00 0.05 0.05 57 1006.5
20260504223612 16 301 6.4 8.0 0.00 0.05 0.05 55 1006.4
20260504223108 16 290 4.8 4.8 0.00 0.05 0.05 56 1006.5
20260504222605 17 287 4.8 8.0 0.00 0.05 0.05 56 1006.6
20260504222102 17 284 8.0 9.7 0.00 0.05 0.05 56 1006.4
20260504221559 16 309 4.8 8.0 0.00 0.05 0.05 56 1006.3
20260504221056 17 289 4.8 8.0 0.00 0.05 0.05 56 1006.1
20260504220553 16 313 11.3 14.5 0.00 0.05 0.05 55 1006.3
20260504220050 17 282 11.3 14.5 0.00 0.05 0.05 56 1006.4
20260504215546 16 251 11.3 14.5 0.00 0.05 0.05 55 1006.2
20260504215044 16 270 12.9 16.1 0.00 0.05 0.05 57 1006.4
20260504214539 16 266 12.9 16.1 0.00 0.05 0.05 57 1006.3
20260504214036 16 261 11.3 14.5 0.00 0.05 0.05 58 1006.2
20260504213532 16 281 12.9 17.7 0.00 0.05 0.05 58 1006.1
20260504213030 16 282 4.8 8.0 0.00 0.05 0.05 59 1006.5
20260504212526 16 277 9.7 12.9 0.00 0.05 0.05 59 1006.2
20260504212023 16 284 11.3 12.9 0.00 0.05 0.05 59 1006.3
20260504211520 16 269 12.9 14.5 0.00 0.05 0.05 59 1006.2
20260504211017 16 303 11.3 12.9 0.00 0.05 0.05 60 1006.3
20260504210514 16 263 17.7 24.1 0.00 0.05 0.05 60 1006.3
20260504210011 16 286 9.7 11.3 0.00 0.05 0.05 60 1006.2
20260504205509 16 325 11.3 14.5 0.00 0.05 0.05 59 1005.9
20260504205006 16 308 4.8 4.8 0.00 0.05 0.05 60 1006.2
20260504204504 16 349 8.0 12.9 0.00 0.05 0.05 62 1006.1
20260504204003 16 261 8.0 9.7 0.00 0.05 0.05 61 1006.4
20260504203500 16 267 17.7 24.1 0.00 0.05 0.05 62 1006.0
20260504202956 16 274 12.9 20.9 0.00 0.05 0.05 62 1005.9
20260504202453 16 303 12.9 17.7 0.00 0.05 0.05 63 1005.8
20260504201950 16 294 11.3 12.9 0.00 0.05 0.05 62 1005.8
20260504201447 16 299 14.5 16.1 0.00 0.05 0.05 62 1006.1
20260504200945 16 259 17.7 20.9 0.00 0.05 0.05 61 1006.1
20260504200441 16 270 14.5 24.1 0.00 0.05 0.05 62 1006.0
20260504195938 16 329 14.5 20.9 0.00 0.05 0.05 61 1005.9
20260504195434 16 281 8.0 14.5 0.00 0.05 0.05 62 1005.8
20260504194930 16 342 19.3 27.4 0.00 0.05 0.05 62 1005.9
20260504194426 16 296 6.4 8.0 0.00 0.05 0.05 65 1006.0
20260504193923 15 287 9.7 12.9 0.00 0.05 0.05 67 1006.1
20260504193420 15 296 11.3 16.1 0.00 0.05 0.05 67 1006.3
20260504192919 15 284 12.9 17.7 0.00 0.05 0.05 68 1006.2
20260504192415 15 272 12.9 16.1 0.00 0.05 0.05 69 1006.2
20260504191914 15 278 14.5 20.9 0.00 0.05 0.05 69 1006.2
20260504191412 14 231 11.3 14.5 0.00 0.05 0.05 78 1006.3
20260504190907 14 232 9.7 12.9 0.00 0.05 0.05 82 1006.3
20260504190403 14 216 8.0 9.7 0.00 0.05 0.05 78 1006.3
20260504185900 13 229 6.4 9.7 0.00 0.05 0.05 81 1006.5
20260504185357 13 231 6.4 8.0 0.00 0.05 0.05 81 1006.4
20260504184853 12 280 11.3 12.9 0.00 0.05 0.05 84 1006.4
20260504184348 12 254 6.4 8.0 0.00 0.05 0.05 89 1006.7
20260504183845 11 245 6.4 8.0 0.00 0.05 0.05 89 1006.7
20260504183343 11 278 8.0 9.7 0.00 0.05 0.05 90 1006.9
20260504182840 11 239 11.3 12.9 0.00 0.05 0.05 90 1006.8
20260504182337 11 274 6.4 8.0 0.00 0.05 0.05 89 1006.9
20260504181834 11 296 6.4 8.0 0.00 0.05 0.05 90 1007.1
20260504181331 10 245 4.8 4.8 0.13 0.05 0.05 90 1007.0
20260504180830 10 299 4.8 4.8 0.13 0.05 0.05 91 1007.0
20260504180328 10 305 8.0 9.7 0.13 0.05 0.05 90 1007.1
20260504175826 10 13 6.4 8.0 0.00 0.03 0.03 90 1007.4
20260504175322 11 337 4.8 4.8 0.18 0.03 0.03 89 1007.3
20260504174821 11 17 1.6 1.6 0.18 0.03 0.03 88 1007.2
20260504174318 11 303 6.4 8.0 0.00 0.00 0.00 86 1007.1
20260504173815 11 346 4.8 8.0 0.00 0.00 0.00 82 1007.3
20260504173311 12 289 8.0 11.3 0.00 0.00 0.00 78 1007.0
20260504172809 12 295 12.9 14.5 0.00 0.00 0.00 73 1007.0
20260504172305 13 145 3.2 4.8 0.00 0.00 0.00 70 1006.9
20260504171801 13 317 8.0 12.9 0.00 0.00 0.00 67 1006.7
20260504171258 14 274 17.7 22.5 0.00 0.00 0.00 63 1006.7
20260504170755 14 282 11.3 12.9 0.00 0.00 0.00 65 1006.4
20260504170252 13 353 14.5 17.7 0.00 0.00 0.00 64 1006.3
20260504160211 13 221 4.8 8.0 0.00 0.00 0.00 62 1006.1
20260504151139 12 211 14.5 16.1 0.00 0.00 0.00 60 1006.7
20260504150636 12 231 6.4 9.7 0.00 0.00 0.00 60 1007.0
20260504150133 12 249 14.5 16.1 0.00 0.00 0.00 57 1007.2
20260504141101 11 230 9.7 11.3 0.00 0.00 0.00 55 1008.0
20260504140558 11 241 11.3 12.9 0.00 0.00 0.00 56 1008.0
20260504130522 11 238 11.3 16.1 0.00 0.00 0.00 57 1008.3
20260504110410 3 230 6.4 8.0 0.00 0.00 0.00 84 1009.1
20260504100326 1 289 3.2 4.8 0.00 0.00 0.00 89 1008.8
20260504081720 1 316 3.2 3.2 0.00 0.00 0.00 87 1008.2
20260504081216 1 274 4.8 4.8 0.00 0.00 0.00 88 1008.1
20260504080712 1 301 1.6 3.2 0.00 0.00 0.00 86 1008.0
20260504080209 1 321 3.2 3.2 0.00 0.00 0.00 86 1008.2
20260504070137 2 311 1.6 3.2 0.00 0.00 0.00 81 1008.0
20260504050525 5 284 4.8 8.0 0.00 0.00 0.00 67 1007.2
20260504050022 5 275 8.0 9.7 0.00 0.00 0.00 65 1007.1
20260504045519 5 278 8.0 9.7 0.00 0.00 0.00 66 1007.1
20260504045015 5 262 6.4 9.7 0.00 0.00 0.00 66 1007.2
20260504044512 5 340 3.2 3.2 0.00 0.00 0.00 66 1007.1
20260504044009 5 288 3.2 3.2 0.00 0.00 0.00 67 1007.1
20260504043506 5 289 3.2 3.2 0.00 0.00 0.00 68 1007.1
20260504043004 5 262 8.0 9.7 0.00 0.00 0.00 66 1007.0
20260504042500 5 290 4.8 4.8 0.00 0.00 0.00 68 1007.0
20260504041957 5 291 4.8 4.8 0.00 0.00 0.00 68 1007.2
20260504041453 5 304 4.8 4.8 0.00 0.00 0.00 68 1007.1
20260504040949 5 290 4.8 4.8 0.00 0.00 0.00 69 1007.1
20260504040447 5 334 4.8 4.8 0.00 0.00 0.00 69 1007.0
20260504035943 5 294 8.0 8.0 0.00 1.04 1.04 69 1007.0
20260504035441 5 280 9.7 12.9 0.00 1.04 1.04 69 1006.9
20260504034937 5 356 1.6 1.6 0.00 1.04 1.04 70 1006.8
20260504034435 5 20 3.2 3.2 0.00 1.04 1.04 70 1006.7
20260504033931 5 331 1.6 3.2 0.00 1.04 1.04 70 1006.8
20260504033429 5 300 4.8 4.8 0.00 1.04 1.04 70 1006.6
20260504032926 5 257 4.8 4.8 0.00 1.04 1.04 69 1006.8
20260504032423 5 339 1.6 3.2 0.00 1.04 1.04 69 1006.7
20260504031920 5 316 3.2 3.2 0.00 1.04 1.04 69 1006.5
20260504031417 5 16 0.0 1.6 0.00 1.04 1.04 68 1006.7
20260504030913 5 26 6.4 8.0 0.00 1.04 1.04 67 1006.3
20260504030410 5 358 1.6 1.6 0.00 1.04 1.04 69 1006.4
20260504025906 5 319 3.2 4.8 0.00 1.04 1.04 68 1006.5
20260504025404 5 313 8.0 12.9 0.00 1.04 1.04 68 1006.2
20260504024900 5 292 4.8 8.0 0.00 1.04 1.04 69 1006.4
20260504024356 5 313 1.6 3.2 0.00 1.04 1.04 68 1006.5
20260504023854 5 314 4.8 4.8 0.00 1.04 1.04 68 1006.4
20260504023350 5 330 1.6 1.6 0.00 1.04 1.04 67 1006.4
20260504022846 5 321 8.0 12.9 0.00 1.04 1.04 67 1006.3
20260504022343 5 359 9.7 14.5 0.00 1.04 1.04 67 1006.2
20260504021839 5 356 4.8 9.7 0.00 1.04 1.04 68 1006.3
20260504021337 5 10 3.2 3.2 0.00 1.04 1.04 67 1006.0
20260504020834 5 290 4.8 4.8 0.00 1.04 1.04 66 1006.4
20260504020331 5 289 4.8 4.8 0.00 1.04 1.04 66 1006.3
20260504015827 6 1 3.2 4.8 0.00 1.04 1.04 65 1006.2
20260504015323 6 269 3.2 4.8 0.00 1.04 1.04 64 1006.0
20260504014819 6 30 6.4 12.9 0.00 1.04 1.04 62 1005.9
20260504014315 6 308 9.7 12.9 0.00 1.04 1.04 62 1006.1
20260504013813 6 267 6.4 9.7 0.00 1.04 1.04 61 1006.0
20260504013311 6 290 8.0 11.3 0.00 1.04 1.04 62 1005.8
20260504012807 6 324 8.0 9.7 0.00 1.04 1.04 60 1005.8
20260504012305 6 339 8.0 9.7 0.00 1.04 1.04 62 1005.9
20260504011803 6 9 3.2 4.8 0.00 1.04 1.04 60 1005.9
20260504011259 6 1 3.2 3.2 0.00 1.04 1.04 59 1005.6
20260504010754 6 2 4.8 4.8 0.00 1.04 1.04 60 1005.7
20260504010250 6 343 14.5 16.1 0.00 1.04 1.04 59 1005.4
20260504005747 7 314 4.8 9.7 0.00 1.04 1.04 59 1005.4
20260504005244 7 6 4.8 9.7 0.00 1.04 1.04 59 1005.3
20260504004742 7 298 12.9 14.5 0.00 1.04 1.04 58 1005.3
20260504004239 7 352 8.0 11.3 0.00 1.04 1.04 59 1005.0
20260504003735 7 339 8.0 11.3 0.00 1.04 1.04 60 1005.0
20260504003232 7 310 6.4 9.7 0.00 1.04 1.04 60 1005.0
20260504002729 7 32 6.4 9.7 0.00 1.04 1.04 60 1004.8
20260504002226 7 8 1.6 3.2 0.00 1.04 1.04 61 1004.8
20260504001724 7 25 8.0 11.3 0.00 1.04 1.04 60 1004.7
20260504001220 7 334 6.4 8.0 0.00 1.04 1.04 61 1004.6
20260504000717 7 313 8.0 9.7 0.00 1.04 1.04 63 1004.4
20260504000214 7 343 6.4 8.0 0.00 1.04 1.04 64 1004.4
20260503235712 7 337 8.0 9.7 0.00 1.04 1.04 63 1004.2
20260503235209 7 6 6.4 8.0 0.00 1.04 1.04 62 1004.2
20260503234707 7 332 4.8 4.8 0.00 1.04 1.04 63 1004.0
20260503234205 8 10 8.0 9.7 0.00 1.04 1.04 62 1003.8
20260503233701 8 10 1.6 3.2 0.00 1.04 1.04 62 1003.9
20260503233157 8 36 11.3 22.5 0.00 1.04 1.04 63 1003.8
20260503232654 8 309 8.0 11.3 0.00 1.04 1.04 68 1003.7
20260503232151 8 15 1.6 1.6 0.00 1.04 1.04 69 1003.5